Regional Weather Roundup
Issued by NWS

Home | Current Version | Previous Version | Graphics & Text | Print | Product List | Glossary On
Versions: 1 2 3 4 5 6 7 8 9 10 11 12 13 14 15 16 17 18 19 20 21 22 23 24 25 26 27 28 29 30 31 32 33 34 35 36 37 38 39 40 41 42 43 44 45 46 47 48 49 50
000
ASUS45 KSLC 202110
RWRUT

UTAH REGIONAL WEATHER ROUNDUP
NATIONAL WEATHER SERVICE SALT LAKE CITY UT
300 PM MDT WED AUG 20 2014

UTZ001>011-023>025-202200-

NORTHERN UTAH

CITY           SKY/WX    TMP DP  RH WIND       PRES   REMARKS
HILL AFB       SUNNY     78  51  37 W7G17     30.00F
LOGAN          SUNNY     80  49  33 VRB7      29.96F
OGDEN          SUNNY     80  50  34 S9        29.97F
PROVO AIRPORT    N/A     77  54  44 E3        30.02F
SALT LAKE CITY MOSUNNY   81  48  31 S16       29.96F
VERNAL         MOSUNNY   75  53  46 E6        30.02F
WENDOVER       MOSUNNY   84  46  26 SE18      29.92F
HEBER CITY     MOSUNNY   73  52  46 CALM      30.05F
WEST JORDAN    SUNNY     79  59  50 SE16G22   30.00F

$$

UTZ012>022-026-027-202200-

SOUTHERN UTAH

CITY           SKY/WX    TMP DP  RH WIND       PRES   REMARKS
BRYCE CANYON   PTSUNNY   63  45  51 NE9       30.24F
CEDAR CITY     MOSUNNY   78  49  35 SW15G21   30.10F
MILFORD        PTSUNNY   84  50  30 SW20G26   30.04F
MOAB/CYNLANDS  SUNNY     82  48  30 SW7       29.96F
PRICE          MOSUNNY   72  50  45 S3        30.06F
ST GEORGE      PTCLDY    84  55  37 NW3       29.98F
KANAB            N/A     79  50  36 SW12G18   30.11F

$$

REGIONAL REPORTS     COLORADO/ARIZONA

CITY           SKY/WX    TMP DP  RH WIND       PRES   REMARKS
CRAIG, CO      MOSUNNY   70  56  61 NW8       30.09F
GRAND JUNCTION SUNNY     77  54  44 VRB7      30.01F
RIFLE          MOSUNNY   80  47  31 W17G28    30.02F
MONTROSE       MOSUNNY   81  48  31 N9        30.06F
CORTEZ         SUNNY     80  39  23 W17G23    30.11F
PAGE, AZ       SUNNY     85  47  26 VRB3      30.01F
GRAND CANYON   LGT RAIN  66  48  52 SW17      30.24S
KINGMAN        MOSUNNY   86  53  32 E14       30.02F
FLAGSTAFF      CLOUDY    68  44  42 N9        30.25F

$$

REGIONAL REPORTS    NEVADA/IDAHO/WYOMING

CITY           SKY/WX    TMP DP  RH WIND       PRES   REMARKS
LAS VEGAS, NV  MOSUNNY   94  37  13 SW15G23   29.85F
ELY            SUNNY     75  39  27 S9        30.09F
ELKO           MOSUNNY   83  35  18 S9        29.95F
POCATELLO, ID  MOSUNNY   80  45  28 CALM      29.91F
BURLEY         PTSUNNY   82  51  34 SW12      29.87F
EVANSTON, WY   MOSUNNY   72  44  36 W15G24    30.12S
ROCK SPRINGS   LGT RAIN  59  45  59 NW15      30.12R

$$



USA.gov is the U.S. government's official web portal to all federal, state and local government web resources and services.